www.pogodaiklimat.ru

Погода и климат >> Архив погоды >> Дания >> Арслев


ПОГОДА в Арслеве

  • Прогноз погоды в Арслеве
  • Монитор погоды в Арслеве

АРХИВ ПОГОДЫ в Арслеве

Время (UTC), дата Ветер
(напр.,м/с)
 
Видим.   Явления Облачность Т
(С)
Тd
(С)
f
(%)
Тe
(С)
Тes
(С)
Комфортность P
(гПа)
Po
(гПа)
Тmin
(С)
Tmax
(С)
R
(мм)
R24
(мм)
S
(см)
10 10.08 ЮЗ 7 н/о н/о +20.8 +17.1 79 +24 +24 комфорт 1004.4 998.5 0.9
11 10.08 ЮЗ 8 н/о н/о +22.1 +15.8 67 +26 +26 душно 1004.5 998.6
12 10.08 ЮЗ 8
{16}
н/о н/о +21.2 +16.0 72 +25 +25 комфорт 1005.0 999.1 0.9
13 10.08 З 6 н/о н/о +19.7 +15.6 77 +21 +21 комфорт 1005.3 999.4
14 10.08 ЮЗ 6 н/о н/о +18.5 +16.1 86 +19 +19 1005.6 999.6 8
15 10.08 ЮЗ 8-13
{14}
н/о н/о +20.5 +16.2 76 +23 +23 комфорт 1005.8 999.8 8
16 10.08 ЮЗ 9 н/о н/о +20.0 +14.6 71 +21 +21 комфорт 1006.2 1000.3
17 10.08 ЮЗ 8 н/о н/о +20.9 +13.6 63 +23 +23 комфорт 1006.2 1000.3
18 10.08 ЮЗ 8-14
{20}
н/о н/о +20.0 +13.0 64 +21 +21 комфорт 1006.7 1000.8 +17.0 +23.4
19 10.08 ЮЗ 8 н/о н/о +19.5 +12.6 64 +20 +20 1007.0 1001.1
20 10.08 ЮЗ 7 н/о н/о +19.5 +12.7 65 +20 +20 1007.4 1001.5
21 10.08 ЮЗ 7
{15}
н/о н/о +19.6 +12.8 65 +21 +21 комфорт 1007.4 1001.4
22 10.08 ЮЗ 9 н/о н/о +19.3 +12.6 65 +20 +20 1007.4 1001.4
23 10.08 ЮЗ 6 н/о н/о +19.3 +12.5 65 +20 +20 1007.4 1001.4
00 11.08 ЮЗ 9-14
{17}
н/о н/о +19.0 +13.7 71 +19 +19 1007.4 1001.5
01 11.08 ЮЗ 7 н/о н/о +18.6 +14.0 75 +19 +19 1007.4 1001.5
02 11.08 ЮЗ 8 н/о н/о +18.0 +13.8 76 +17 +17 1007.4 1001.4
03 11.08 ЮЗ 6
{16}
н/о н/о +17.6 +13.6 77 +17 +17 1007.5 1001.5
04 11.08 ЮЗ 6 н/о н/о +17.3 +13.8 80 +17 +17 1007.9 1001.9
05 11.08 ЮЗ 5 н/о н/о +17.0 +14.0 82 +16 +16 1008.3 1002.3
06 11.08 ЮЗ 7
{16}
н/о н/о +17.6 +14.0 79 +17 +17 1008.6 1002.6 +16.8 +20.2
07 11.08 ЮЗ 8 н/о н/о +18.7 +13.9 74 +19 +19 1008.9 1002.9
08 11.08 ЮЗ 9 н/о н/о +19.6 +13.9 70 +21 +21 комфорт 1009.3 1003.3
09 11.08 ЮЗ 8
{14}
н/о н/о +20.4 +13.7 65 +22 +22 комфорт 1009.7 1003.8
10 11.08 ЮЗ 9 н/о н/о +20.3 +13.4 65 +22 +22 комфорт 1010.2 1004.2
11 11.08 ЮЗ 9 н/о н/о +21.2 +13.4 61 +24 +24 комфорт 1010.8 1004.8
12 11.08 ЮЗ 9-15
{17}
н/о н/о +21.6 +12.6 57 +24 +24 комфорт 1010.5 1004.5
13 11.08 ЮЗ 9 н/о н/о +20.1 +12.0 60 +21 +21 комфорт 1011.1 1005.1
14 11.08 ЮЗ 8 н/о н/о +20.2 +11.9 59 +22 +22 комфорт 1011.3 1005.3
15 11.08 ЮЗ 8
{15}
н/о н/о +20.6 +11.2 55 +22 +22 комфорт 1011.1 1005.1
16 11.08 ЮЗ 6 н/о н/о +20.9 +11.4 55 +23 +23 комфорт 1010.9 1005.0
17 11.08 ЮЗ 9 н/о н/о +19.6 +11.8 61 +20 +20 1011.1 1005.1
18 11.08 ЮЗ 6
{15}
н/о н/о +18.9 +12.8 68 +19 +19 1011.3 1005.3 +17.6 +22.4
19 11.08 ЮЗ 3 н/о н/о +17.6 +12.4 72 +18 +18 1011.4 1005.4
20 11.08 ЮЗ 2 н/о н/о +16.9 +12.6 76 +17 +17 1011.6 1005.5
21 11.08 ЮЗ 3 н/о н/о +17.4 +13.1 76 +17 +17 1011.5 1005.5
22 11.08 ЮЗ 2 н/о н/о +16.9 +13.2 79 +17 +17 1011.6 1005.6
23 11.08 Ю 2 н/о н/о +16.4 +13.3 82 +16 +16 1011.5 1005.4
00 12.08 Ю 3 н/о н/о +16.6 +13.8 84 +16 +16 1010.9 1004.9
01 12.08 Ю 3 н/о н/о +17.0 +13.8 81 +17 +17 1010.6 1004.6
02 12.08 ЮЗ 3 н/о н/о +17.1 +13.2 78 +17 +17 1010.6 1004.6
03 12.08 ЮЗ 4 н/о н/о +17.1 +13.4 79 +17 +17 1010.5 1004.5
04 12.08 ЮЗ 4 н/о н/о +16.9 +13.8 82 +17 +17 1010.4 1004.4
05 12.08 ЮЗ 4 н/о н/о +17.0 +13.6 80 +17 +17 1010.3 1004.3
06 12.08 ЮЗ 5 н/о н/о +17.6 +13.9 79 +17 +17 1010.2 1004.2 +16.1 +19.0
07 12.08 ЮЗ 5 н/о н/о +18.0 +13.9 77 +18 +18 1010.4 1004.3
08 12.08 ЮЗ 7 н/о н/о +18.9 +13.7 72 +19 +19 1010.3 1004.3
09 12.08 ЮЗ 7-12
{12}
н/о н/о +19.1 +12.7 66 +20 +20 1010.7 1004.7
10 12.08 ЮЗ 8 н/о н/о +20.1 +13.0 64 +21 +21 комфорт 1010.6 1004.6
11 12.08 ЮЗ 7 н/о н/о +19.7 +13.4 67 +21 +21 комфорт 1010.7 1004.7
12 12.08 З 6
{12}
н/о н/о +18.6 +12.0 65 +19 +19 1011.2 1005.2
13 12.08 ЮЗ 7 н/о н/о +18.8 +13.6 72 +19 +19 1011.4 1005.4
14 12.08 З 7 н/о н/о +20.9 +10.4 51 +22 +22 комфорт 1010.9 1005.0
15 12.08 З 7 н/о н/о +20.6 +10.3 52 +22 +22 комфорт 1011.1 1005.1
16 12.08 ЮЗ 7 н/о н/о +19.7 +10.1 54 +20 +20 1011.0 1005.0
17 12.08 З 6 н/о н/о +19.0 +10.1 56 +19 +19 1010.9 1004.9
18 12.08 З 4
{12}
н/о н/о +17.5 +10.4 63 +17 +17 1011.1 1005.1 +17.4 +21.2
19 12.08 ЮЗ 2 н/о н/о +16.1 +10.7 70 +16 +16 1011.7 1005.6
20 12.08 ЮЗ 3 н/о н/о +14.6 +10.7 77 +14 +14 1012.2 1006.1
21 12.08 З 2 н/о н/о +13.3 +10.4 83 +13 +13 1011.9 1005.8
22 12.08 ЮЗ 1 н/о н/о +13.1 +10.7 85 +13 +13 1011.8 1005.7
23 12.08 Ю 2 н/о н/о +12.9 +10.8 87 +12 +12 1011.6 1005.5
00 13.08 ЮЗ 2 н/о н/о +13.0 +11.0 88 +13 +13 1011.2 1005.1
01 13.08 ЮЗ 2 н/о н/о +13.8 +11.4 85 +14 +14 1010.9 1004.8
02 13.08 Ю 2 н/о н/о +14.0 +12.0 88 +14 +14 1010.5 1004.4
03 13.08 ЮВ 1 н/о н/о +13.4 +12.0 91 +13 +13 1010.2 1004.1 7
04 13.08 С 2 н/о н/о +13.1 +12.2 94 +13 +13 1010.0 1003.9 0.8
05 13.08 ЮЗ 2 н/о н/о +13.3 +12.8 97 +13 +13 1010.3 1004.2 5
06 13.08 ЮЗ 1 н/о н/о +13.4 +13.0 97 +13 +13 1010.5 1004.4 +12.2 +17.6 7
07 13.08 З 3 н/о н/о +14.3 +13.7 96 +13 +13 1010.6 1004.5
08 13.08 З 4 н/о н/о +15.8 +12.7 82 +15 +15 1010.8 1004.8
09 13.08 З 3 н/о н/о +15.7 +12.7 82 +15 +15 1011.0 1005.0
10 13.08 З 3 н/о н/о +16.1 +11.8 76 +16 +16 1011.3 1005.3
11 13.08 З 5 н/о н/о +15.8 +11.1 74 +15 +15 1011.6 1005.5
12 13.08 ЮЗ 5 н/о н/о +15.2 +12.4 83 +14 +14 1012.0 1005.9 0.2
13 13.08 ЮЗ 4 н/о н/о +14.9 +12.5 86 +14 +14 1012.1 1006.0
14 13.08 ЮЗ 6 н/о н/о +15.7 +11.8 78 +14 +14 1011.9 1005.8
15 13.08 З 5 н/о н/о +18.0 +7.9 52 +18 +18 1012.1 1006.1
16 13.08 З 5 н/о н/о +17.2 +7.6 53 +17 +17 1012.5 1006.4
17 13.08 З 6 н/о н/о +16.4 +8.2 58 +15 +15 1012.9 1006.8
18 13.08 З 4 н/о н/о +15.6 +7.3 58 +15 +15 1013.0 1006.9 +13.3 +18.2
19 13.08 З 3 н/о н/о +13.7 +8.1 69 +13 +13 1013.5 1007.3
20 13.08 ЮЗ 2 н/о н/о +12.0 +8.4 79 +11 +11 1013.9 1007.7
21 13.08 З 2 н/о н/о +11.5 +8.4 81 +10 +10 1014.0 1007.8
22 13.08 ЮЗ 2 н/о н/о +10.8 +8.4 85 +9 +9 1014.0 1007.8
23 13.08 ЮЗ 2 н/о н/о +10.3 +8.2 87 +9 +9 1013.8 1007.6
00 14.08 Ю 2 н/о н/о +10.6 +8.4 86 +10 +10 1013.9 1007.7
01 14.08 Ю 3 н/о н/о +10.5 +9.2 92 +9 +9 1013.9 1007.7
02 14.08 Ю 3 н/о н/о +10.5 +9.4 93 +9 +9 1013.9 1007.7
03 14.08 Ю 2 н/о н/о +11.1 +10.1 94 +10 +10 1013.8 1007.6
04 14.08 ЮЗ 2 н/о н/о +11.7 +10.8 94 +10 +10 1013.6 1007.4 0.1
05 14.08 ЮЗ 2 н/о н/о +12.0 +10.8 92 +11 +11 1013.7 1007.5
06 14.08 ЮЗ 3 н/о н/о +12.4 +10.4 88 +11 +11 1014.0 1007.9 +9.9 +15.6 0.1
07 14.08 ЮЗ 4 н/о н/о +14.6 +11.1 80 +13 +13 1013.9 1007.8
08 14.08 ЮЗ 6 н/о н/о +16.3 +10.3 68 +15 +15 1014.0 1007.9
09 14.08 З 5 н/о н/о +17.2 +8.6 57 +17 +17 1013.9 1007.8
10 14.08 ЮЗ 6 н/о н/о +18.0 +8.6 54 +17 +17 1013.9 1007.8
11 14.08 ЮЗ 4 н/о н/о +15.4 +11.6 78 +15 +15 1014.4 1008.3 1
12 14.08 ЮЗ 5
{14}
н/о н/о +16.7 +10.7 68 +16 +16 1014.4 1008.3 1
13 14.08 ЮЗ 6 н/о н/о +17.8 +10.0 60 +17 +17 1014.2 1008.1
14 14.08 ЮЗ 4 н/о н/о +16.8 +10.9 68 +16 +16 1014.2 1008.2
15 14.08 ЮЗ 6 н/о н/о +18.4 +9.0 54 +18 +18 1014.0 1007.9
16 14.08 З 5 н/о н/о +17.6 +8.8 56 +17 +17 1013.8 1007.8
17 14.08 З 6 н/о н/о +17.5 +9.0 57 +17 +17 1013.9 1007.8
18 14.08 ЮЗ 4 н/о н/о +16.8 +8.1 56 +16 +16 1014.0 1007.9 +11.7 +19.1
19 14.08 ЮЗ 3 н/о н/о +14.7 +8.0 64 +14 +14 1014.2 1008.0
20 14.08 ЮЗ 2 н/о н/о +14.2 +10.2 77 +14 +14 1014.1 1008.0
21 14.08 Ю 2 н/о н/о +14.4 +10.6 78 +14 +14 1013.9 1007.8
22 14.08 Ю 2 н/о н/о +14.2 +11.1 82 +14 +14 1013.5 1007.4
23 14.08 Ю 2 н/о н/о +14.4 +11.2 81 +14 +14 1013.2 1007.1
00 15.08 Ю 2 н/о н/о +14.6 +10.9 78 +14 +14 1012.6 1006.5
01 15.08 Ю 3 н/о н/о +14.7 +10.3 75 +14 +14 1011.8 1005.7
02 15.08 Ю 4 н/о н/о +15.2 +11.0 76 +14 +14 1011.1 1005.0
03 15.08 ЮВ 3 н/о н/о +15.2 +11.3 78 +14 +14 1010.3 1004.3
04 15.08 Ю 3 н/о н/о +15.2 +11.2 77 +14 +14 1010.1 1004.0
05 15.08 Ю 1 н/о н/о +14.2 +11.6 84 +15 +15 1009.8 1003.7 0.1
06 15.08 ЮВ 2 н/о н/о +13.9 +12.2 89 +14 +14 1009.3 1003.2 +13.8 +16.8 0.6
07 15.08 ЮВ 3 н/о н/о +14.2 +12.4 89 +13 +13 1008.7 1002.6 0.9
08 15.08 Ю 4 н/о н/о +16.2 +13.7 85 +15 +15 1008.0 1002.0 0.1
09 15.08 Ю 6
{12}
н/о н/о +15.7 +12.5 81 +14 +14 1007.5 1001.4 1
10 15.08 Ю 3 н/о н/о +14.9 +13.7 93 +14 +14 1007.0 1001.0
11 15.08 Ю 5 н/о н/о +14.9 +13.9 94 +13 +13 1006.9 1000.8
12 15.08 Ю 4
{12}
н/о н/о +15.7 +14.5 93 +15 +15 1006.7 1000.7
13 15.08 Ю 4 н/о н/о +15.9 +15.0 94 +15 +15 1006.6 1000.6
14 15.08 Ю 3 н/о н/о +16.1 +15.3 95 +16 +16 1006.4 1000.4
15 15.08 Ю 4 н/о н/о +17.2 +15.4 89 +17 +17 1006.1 1000.1
16 15.08 Ю 4 н/о н/о +17.6 +15.5 87 +17 +17 1006.0 1000.0
17 15.08 Ю 3 н/о н/о +16.8 +16.0 95 +17 +17 1006.3 1000.2 1
18 15.08 Ю 3 н/о н/о +17.0 +16.3 96 +17 +17 1006.1 1000.1 +13.9 +17.8 1
19 15.08 ЮЗ 3 н/о н/о +16.7 +15.9 95 +17 +17 1006.6 1000.6 0.3
20 15.08 ЮЗ 4 н/о н/о +16.5 +15.8 96 +16 +16 1007.0 1001.0
21 15.08 З 4 н/о н/о +16.1 +15.3 95 +15 +15 1007.7 1001.6 0.3
22 15.08 З 4 н/о н/о +16.2 +15.1 93 +15 +15 1008.4 1002.3
23 15.08 З 3 н/о н/о +15.7 +14.8 94 +15 +15 1008.9 1002.8
00 16.08 ЮЗ 3 н/о н/о +14.9 +14.1 95 +14 +14 1009.3 1003.3
01 16.08 ЮЗ 2 н/о н/о +14.2 +13.6 96 +14 +14 1009.6 1003.5
02 16.08 ЮЗ 3 н/о н/о +14.2 +13.8 97 +13 +13 1009.9 1003.8
03 16.08 ЮЗ 3 н/о н/о +14.5 +13.9 96 +14 +14 1010.0 1003.9
04 16.08 ЮЗ 2 н/о н/о +14.2 +13.7 97 +14 +14 1010.3 1004.2
05 16.08 ЮЗ 2 н/о н/о +14.8 +14.3 97 +14 +14 1010.7 1004.6
06 16.08 З 3 н/о н/о +15.8 +14.8 94 +15 +15 1011.3 1005.2 +13.8 +17.2
07 16.08 СЗ 4 н/о н/о +15.5 +14.4 93 +14 +14 1011.8 1005.7
08 16.08 З 4 н/о н/о +16.6 +13.8 84 +16 +16 1012.5 1006.4
09 16.08 З 4 н/о н/о +17.4 +14.3 82 +17 +17 1012.7 1006.6
10 16.08 З 5 н/о н/о +17.7 +13.2 75 +17 +17 1012.9 1006.9
11 16.08 З 5 н/о н/о +18.1 +11.1 64 +18 +18 1013.0 1007.0
12 16.08 З 5 н/о н/о +18.6 +11.3 62 +19 +19 1013.2 1007.1
13 16.08 З 5 н/о н/о +19.0 +11.1 60 +20 +20 1013.0 1006.9
14 16.08 З 5 н/о н/о +19.4 +9.6 53 +20 +20 1013.1 1007.1
15 16.08 З 5 н/о н/о +18.5 +8.5 52 +19 +19 1013.1 1007.0
16 16.08 З 5 н/о н/о +18.6 +10.0 57 +19 +19 1013.1 1007.1
17 16.08 З 4 н/о н/о +17.9 +9.5 58 +18 +18 1012.8 1006.8
18 16.08 ЮЗ 2 н/о н/о +16.7 +10.0 65 +17 +17 1012.9 1006.8 +15.4 +19.9
19 16.08 Ю 2 н/о н/о +15.0 +10.9 76 +15 +15 1013.0 1006.9
20 16.08 Ю 2 н/о н/о +14.4 +10.7 78 +14 +14 1012.6 1006.5
21 16.08 Ю 2 н/о н/о +14.1 +10.8 81 +14 +14 1012.2 1006.1
22 16.08 Ю 4 н/о н/о +15.2 +11.0 76 +14 +14 1011.5 1005.4
23 16.08 ЮВ 4 н/о н/о +15.8 +11.8 77 +15 +15 1010.8 1004.8
00 17.08 Ю 4 н/о н/о +16.3 +13.5 83 +16 +16 1009.9 1003.9
01 17.08 Ю 4 н/о н/о +16.4 +13.7 84 +16 +16 1009.2 1003.1
02 17.08 Ю 4 н/о н/о +16.4 +13.5 83 +16 +16 1008.5 1002.5
03 17.08 Ю 4 н/о н/о +15.4 +13.6 89 +14 +14 1008.1 1002.0 0.3
04 17.08 Ю 4 н/о н/о +14.9 +13.8 93 +14 +14 1007.7 1001.7 0.7
05 17.08 Ю 4 н/о н/о +15.0 +14.1 94 +14 +14 1007.1 1001.1 0.8
06 17.08 Ю 5 н/о н/о +15.2 +14.2 94 +14 +14 1006.6 1000.5 +14.0 +16.9 2
07 17.08 Ю 5 н/о н/о +15.3 +14.5 95 +14 +14 1006.4 1000.3 1
08 17.08 Ю 5 н/о н/о +15.5 +14.7 95 +14 +14 1005.9 999.9 1
09 17.08 Ю 6 н/о н/о +15.4 +14.7 96 +14 +14 1005.6 999.6 3
10 17.08 Ю 5 н/о н/о +16.0 +15.0 94 +15 +15 1005.4 999.4 0.1

 

Местоположение метеостанции Арслев (Дания): широта 55.31 долгота 10.44 высота над уровнем моря 51 м.

В архиве по умолчанию представлена погода в Арслеве за последнюю неделю. Архивные данные за месяц целиком и за предыдущие месяцы, начиная с января 2011 года, Вы можете получить, выбрав интересующий диапазон дат из раскрывающегося списка и нажав кнопку "Ввод!".


*Определитесь, кто Вы:
робот инопланетянин человек

Внимание! Время в таблицах - всемирное. Для получения местного времени необходимо прибавить поправку, которая равна 1 ч.

Смотрите также архив погоды в соседних городах и на ближайших метеорологических станциях:

Погода в Оденсе (Дания) (20 км)
Погода в Тосинге (Дания) (33 км)
Погода в Торае (Дания) (36 км)
Погода в Омо (Дания) (46 км)
Погода на Мысе Roesnaes (Дания) (56 км)
Погода в Тысофте (Дания) (57 км)
Погода на Мысе Kegnaes (Дания) (59 км)
Погода в Флаккебэрге (Дания) (60 км)
Погода в Ланго (Дания) (65 км)
Погода в Вамдрупе (Дания) (71 км)

Пояснения к столбцам:

Ветер - указаны скорость ветра в м/с - средняя за 10 мин, порывы в срок и между сроками (в фигурных скобках) и направление, откуда дует ветер: С - северный, СВ - северо-восточный, В - восточный, ЮВ - юго-восточный, Ю - южный, ЮЗ - юго-западный, З - западный, СЗ - северо-западный.
Видимость - горизонтальная дальность видимости в метрах или километрах. При видимости от 1 до 10 км при отсутствии осадков обычно наблюдается дымка, при ухудшении видимости до 1 км и менее - туман. В сухую погоду видимость может ухудшаться дымом, пылью или мглою.
Явления - указаны атмосферные явления, наблюдавшиеся в срок или в последний час перед сроком; фигурными скобками обозначены явления, наблюдавшиеся между сроками (за 1-3 часа до срока); квадратными скобками обозначены град или гололедные отложения с указанием их диаметра в мм.
Облачность - указаны через наклонную черту общая и нижняя облачность в баллах и высота нижней границы облаков в метрах; квадратными скобками обозначены формы облаков: Ci - перистые, Cs - перисто-слоистые, Cc - перисто-кучевые, Ac - высококучевые, As - высокослоистые, Sc - слоисто-кучевые, Ns - слоисто-дождевые, Cu - кучевые, Cb - кучево-дождевые. Подробнее классификацию облаков см. в Атласе облаков (PDF).
T - Температура воздуха - температура, измеренная на высоте 2 м над землей.
Td - Температура точки росы - температура, при понижении до которой содержащийся в воздухе водяной пар достигнет насыщения.
f - Относительная влажность воздуха - влажноcть воздуха, измеренная на высоте 2 м над землей.
Te - Эффективная температура - температура, которую ощущает одетый по сезону человек в тени. Характеристика душности погоды. При расчете учитывается влияние влажности воздуха и скорости ветра на теплоощущения человека.
Tes - Эффективная температура на солнце - температура, которую ощущает человек, с поправкой на солнечный нагрев. Характеристика знойности погоды. Зависит от высоты солнца над горизонтом, облачности и скорости ветра. Ночью, в пасмурную погоду, а также при ветре 12 м/с и более поправка равна нулю.
P - Атмосферное давление - приведенное к уровню моря атмосферное давление.
Po - Атмосферное давление - измеренное на уровне метеостанции атмосферное давление.
Tmin - Минимальная температура - минимум температуры воздуха на высоте 2 м над землей.
Tmax - Максимальная температура - максимум температуры воздуха на высоте 2 м над землей.
R - Количество осадков - Количество выпавших осадков за период времени, мм. При наведении курсора мыши на число - период времени, за который выпало указанное количество осадков.
R24 - Количество осадков - Количество выпавших осадков за 24 часа, мм.
S - Снежный покров - Высота снежного покрова, см. При наведении курсора мыши на число - состояние снежного покрова и степень покрытия местности в баллах.